When you browse on this site, cookies collect data to enhance your experience and personalize the content and advertising you see.
Visit our Privacy Policy to learn more. By continuing to use the site, you agree to this use of cookies and data.
  • în România
  • Lista ţărilor
  • Pe 7 zile
  • Temperatura apei
  • Hartă satelitară
  • Meteo pe hartă
  • Widget-uri
  • user-avatar
    Intrare

    Meteo pe oră la Romanovo

    Astăzi, 18 Februarie, Luni

    Timp Temperatura Precipitaţii Vânt Presiune Umiditate
    00:00 -5°C° 0 mm 6 m/s 743 mmHg 79%
    01:00 -6°C° 0 mm 6 m/s 744 mmHg 80%
    02:00 -5°C° 0 mm 4 m/s 745 mmHg 83%
    03:00 -7°C° 0 mm 4 m/s 746 mmHg 83%
    04:00 -7°C° 0 mm 4 m/s 746 mmHg 84%
    05:00 -7°C° 0 mm 4 m/s 747 mmHg 84%
    06:00 -8°C° 0 mm 4 m/s 748 mmHg 85%
    07:00 -8°C° 0 mm 4 m/s 749 mmHg 85%
    08:00 -8°C° 0 mm 4 m/s 749 mmHg 85%
    09:00 -8°C° 0 mm 4 m/s 750 mmHg 84%
    10:00 -8°C° 0 mm 4 m/s 750 mmHg 83%
    11:00 -8°C° 0 mm 4 m/s 751 mmHg 81%
    12:00 -7°C° 0 mm 4 m/s 751 mmHg 80%
    13:00 -7°C° 0 mm 4 m/s 752 mmHg 78%
    14:00 -5°C° 0 mm 4 m/s 752 mmHg 77%
    15:00 -7°C° 0 mm 3 m/s 752 mmHg 81%
    16:00 -7°C° 0 mm 2 m/s 753 mmHg 84%
    17:00 -8°C° 0 mm 2 m/s 753 mmHg 88%
    18:00 -8°C° 0 mm 1 m/s 753 mmHg 89%
    19:00 -8°C° 0 mm 1 m/s 753 mmHg 90%
    20:00 -9°C° 0 mm 1 m/s 753 mmHg 91%
    21:00 -9°C° 0 mm 1 m/s 753 mmHg 90%
    22:00 -9°C° 0 mm 1 m/s 753 mmHg 90%
    23:00 -9°C° 0 mm 1 m/s 753 mmHg 90%

    Mâine, 19 Februarie, Marţi

    Timp Temperatura Precipitaţii Vânt Presiune Umiditate
    00:00 -10°C° 0 mm 2 m/s 753 mmHg 89%
    01:00 -10°C° 0 mm 2 m/s 752 mmHg 88%
    02:00 -12°C° 0 mm 3 m/s 752 mmHg 87%
    03:00 -10°C° 0 mm 3 m/s 751 mmHg 85%
    04:00 -11°C° 0 mm 4 m/s 750 mmHg 84%
    05:00 -10°C° 0 mm 4 m/s 749 mmHg 82%
    06:00 -9°C° 0 mm 4 m/s 749 mmHg 80%
    07:00 -10°C° 0 mm 5 m/s 748 mmHg 78%
    08:00 -8°C° 0 mm 5 m/s 748 mmHg 76%
    09:00 -7°C° 0 mm 5 m/s 747 mmHg 75%
    10:00 -5°C° 0 mm 5 m/s 747 mmHg 73%
    11:00 -2°C° 0 mm 5 m/s 746 mmHg 72%
    12:00 -2°C° 0 mm 5 m/s 746 mmHg 75%
    13:00 -1°C° 0 mm 4 m/s 745 mmHg 77%
    14:00 -1°C° 0 mm 4 m/s 745 mmHg 80%
    15:00 -2°C° 0 mm 4 m/s 744 mmHg 82%
    16:00 -1°C° 0 mm 3 m/s 744 mmHg 85%
    17:00 -2°C° 0 mm 3 m/s 743 mmHg 87%
    18:00 -2°C° 0 mm 3 m/s 743 mmHg 87%
    19:00 -4°C° 0 mm 3 m/s 742 mmHg 88%
    20:00 -4°C° 0 mm 4 m/s 742 mmHg 88%
    21:00 -3°C° 0 mm 4 m/s 741 mmHg 88%
    22:00 -3°C° 0 mm 4 m/s 740 mmHg 88%
    23:00 -2°C° 0 mm 5 m/s 740 mmHg 89%

    Poimâine, 20 Februarie, Miercuri

    Timp Temperatura Precipitaţii Vânt Presiune Umiditate
    00:00 -2°C° 0 mm 5 m/s 739 mmHg 88%
    01:00 -2°C° 0 mm 5 m/s 739 mmHg 88%
    02:00 -1°C° 0 mm 5 m/s 738 mmHg 87%
    03:00 -1°C° 0 mm 5 m/s 737 mmHg 88%
    04:00 -1°C° 0 mm 5 m/s 736 mmHg 89%
    05:00 0°C° 0 mm 5 m/s 736 mmHg 89%
    06:00 0°C° 0 mm 5 m/s 736 mmHg 90%
    07:00 0°C° 0 mm 5 m/s 736 mmHg 90%
    08:00 0°C° 0 mm 5 m/s 736 mmHg 90%
    09:00 0°C° 0 mm 5 m/s 736 mmHg 91%
    10:00 0°C° 0 mm 4 m/s 736 mmHg 91%
    11:00 +1°C° 0 mm 4 m/s 736 mmHg 92%
    12:00 0°C° 0 mm 4 m/s 736 mmHg 91%
    13:00 0°C° 0 mm 4 m/s 736 mmHg 90%
    14:00 0°C° 0 mm 4 m/s 736 mmHg 90%
    15:00 0°C° 0 mm 4 m/s 735 mmHg 89%
    16:00 -1°C° 0 mm 4 m/s 735 mmHg 88%
    17:00 -1°C° 0 mm 4 m/s 735 mmHg 87%
    18:00 -1°C° 0 mm 4 m/s 735 mmHg 87%
    19:00 -1°C° 0 mm 4 m/s 735 mmHg 87%
    20:00 -1°C° 0 mm 4 m/s 735 mmHg 87%
    21:00 -1°C° 0.1 mm 4 m/s 734 mmHg 87%
    22:00 -1°C° 0.1 mm 4 m/s 734 mmHg 87%
    23:00 -1°C° 0.1 mm 4 m/s 734 mmHg 87%

    21 Februarie, Joi

    Timp Temperatura Precipitaţii Vânt Presiune Umiditate
    00:00 -1°C° 0.3 mm 4 m/s 734 mmHg 87%
    01:00 -1°C° 0.3 mm 4 m/s 734 mmHg 87%
    02:00 -2°C° 0.3 mm 4 m/s 734 mmHg 86%
    03:00 -2°C° 0.1 mm 4 m/s 734 mmHg 86%
    04:00 -2°C° 0.1 mm 5 m/s 734 mmHg 86%
    05:00 -4°C° 0.1 mm 5 m/s 734 mmHg 85%
    06:00 -4°C° 0.1 mm 5 m/s 735 mmHg 84%
    07:00 -5°C° 0.1 mm 6 m/s 736 mmHg 82%
    08:00 -5°C° 0.1 mm 6 m/s 736 mmHg 81%
    09:00 -6°C° 0 mm 6 m/s 737 mmHg 79%
    10:00 -8°C° 0 mm 7 m/s 737 mmHg 76%
    11:00 -8°C° 0 mm 7 m/s 738 mmHg 74%
    12:00 -9°C° 0.1 mm 7 m/s 739 mmHg 75%
    13:00 -9°C° 0.1 mm 7 m/s 740 mmHg 75%
    14:00 -9°C° 0.1 mm 7 m/s 741 mmHg 76%
    15:00 -11°C° 0.1 mm 7 m/s 742 mmHg 75%
    16:00 -11°C° 0.1 mm 7 m/s 743 mmHg 75%
    17:00 -11°C° 0.1 mm 7 m/s 744 mmHg 74%
    18:00 -11°C° 0 mm 6 m/s 745 mmHg 74%
    19:00 -11°C° 0 mm 6 m/s 746 mmHg 74%
    20:00 -12°C° 0 mm 6 m/s 747 mmHg 74%
    21:00 -12°C° 0 mm 6 m/s 748 mmHg 74%
    22:00 -12°C° 0 mm 6 m/s 748 mmHg 74%
    23:00 -14°C° 0 mm 6 m/s 749 mmHg 75%

    22 Februarie, Vineri

    Timp Temperatura Precipitaţii Vânt Presiune Umiditate
    00:00 -13°C° 0 mm 5 m/s 750 mmHg 76%
    01:00 -13°C° 0 mm 5 m/s 751 mmHg 77%
    02:00 -14°C° 0 mm 5 m/s 752 mmHg 78%
    03:00 -14°C° 0 mm 5 m/s 752 mmHg 79%
    04:00 -14°C° 0 mm 5 m/s 753 mmHg 80%
    05:00 -15°C° 0 mm 4 m/s 753 mmHg 81%
    06:00 -15°C° 0 mm 4 m/s 754 mmHg 81%
    07:00 -15°C° 0 mm 4 m/s 755 mmHg 82%
    08:00 -15°C° 0 mm 4 m/s 756 mmHg 82%
    09:00 -14°C° 0 mm 4 m/s 756 mmHg 81%
    10:00 -12°C° 0 mm 4 m/s 757 mmHg 80%
    11:00 -12°C° 0 mm 4 m/s 757 mmHg 79%
    12:00 -11°C° 0 mm 4 m/s 757 mmHg 78%
    13:00 -12°C° 0 mm 5 m/s 758 mmHg 76%
    14:00 -11°C° 0 mm 5 m/s 758 mmHg 75%
    15:00 -11°C° 0 mm 4 m/s 758 mmHg 77%
    16:00 -12°C° 0 mm 4 m/s 759 mmHg 80%
    17:00 -12°C° 0 mm 4 m/s 759 mmHg 82%
    18:00 -14°C° 0 mm 4 m/s 760 mmHg 84%
    19:00 -14°C° 0 mm 4 m/s 760 mmHg 85%
    20:00 -15°C° 0 mm 4 m/s 761 mmHg 87%
    21:00 -14°C° 0 mm 3 m/s 761 mmHg 88%
    22:00 -15°C° 0 mm 3 m/s 761 mmHg 90%
    23:00 -15°C° 0 mm 3 m/s 761 mmHg 91%

    23 Februarie, Sâmbătă

    Timp Temperatura Precipitaţii Vânt Presiune Umiditate
    00:00 -14°C° 0 mm 2 m/s 761 mmHg 91%
    01:00 -15°C° 0 mm 2 m/s 761 mmHg 92%
    02:00 -15°C° 0 mm 2 m/s 761 mmHg 93%
    03:00 -15°C° 0 mm 2 m/s 761 mmHg 93%
    04:00 -15°C° 0 mm 2 m/s 761 mmHg 94%
    05:00 -14°C° 0 mm 1 m/s 760 mmHg 94%
    06:00 -13°C° 0 mm 1 m/s 760 mmHg 93%
    07:00 -13°C° 0 mm 1 m/s 760 mmHg 91%
    08:00 -13°C° 0 mm 0 m/s 759 mmHg 90%
    09:00 -11°C° 0 mm 1 m/s 759 mmHg 87%
    10:00 -10°C° 0 mm 1 m/s 758 mmHg 83%
    11:00 -10°C° 0 mm 2 m/s 758 mmHg 80%
    12:00 -9°C° 0 mm 2 m/s 757 mmHg 80%
    13:00 -9°C° 0 mm 2 m/s 756 mmHg 80%
    14:00 -8°C° 0 mm 2 m/s 756 mmHg 80%
    15:00 -8°C° 0 mm 2 m/s 755 mmHg 82%
    16:00 -8°C° 0 mm 2 m/s 755 mmHg 85%
    17:00 -8°C° 0 mm 2 m/s 755 mmHg 87%
    18:00 -9°C° 0 mm 2 m/s 754 mmHg 89%
    19:00 -9°C° 0 mm 2 m/s 754 mmHg 90%
    20:00 -9°C° 0 mm 2 m/s 754 mmHg 91%
    21:00 -9°C° 0 mm 2 m/s 754 mmHg 92%
    22:00 -9°C° 0 mm 2 m/s 754 mmHg 92%
    23:00 -8°C° 0 mm 2 m/s 754 mmHg 93%
    Arată mai mult